CW1490 Weather Reports


time (UTC)temp
C
wind
direction
speed
KPH
gust
KPH
rain 1hr
cm
rain 24hr
cm
rain mn
cm
humidity
%
barometer
mb
20260903060505 17 198 6.4 16.1 0.03 0.03 0.03 84 1016.9
20260903060015 17 198 8.0 16.1 0.03 0.03 0.03 83 1017.1
20260903055507 18 209 4.8 11.3 0.00 0.00 0.00 83 1017.1
20260903055005 18 205 4.8 12.9 0.00 0.00 0.00 82 1017.3
20260903054536 18 227 4.8 16.1 0.00 0.00 0.00 82 1017.4
20260903054008 18 216 6.4 16.1 0.00 0.00 0.00 81 1017.6
20260903053508 18 223 9.7 16.1 0.00 0.00 0.00 80 1017.7
20260903053024 18 221 8.0 17.7 0.00 0.00 0.00 79 1017.8
20260903052512 18 210 9.7 22.5 0.00 0.00 0.00 79 1017.9
20260903052014 18 186 8.0 22.5 0.00 0.00 0.00 78 1017.9
20260903051528 18 219 6.4 11.3 0.00 0.00 0.00 78 1017.9
20260903051016 18 214 8.0 19.3 0.00 0.00 0.00 77 1017.9
20260903050513 18 219 9.7 19.3 0.00 0.00 0.00 77 1017.8
20260903050040 18 229 3.2 17.7 0.00 0.00 0.00 76 1017.8
20260903045513 18 218 11.3 17.7 0.00 0.00 0.00 76 1017.8
20260903045006 18 265 4.8 16.1 0.00 0.00 0.00 76 1017.7
20260903044514 18 193 8.0 16.1 0.00 0.00 0.00 77 1017.7
20260903044008 18 219 8.0 16.1 0.00 0.00 0.00 77 1017.8
20260903043510 18 153 4.8 11.3 0.00 0.00 0.00 77 1017.8
20260903043023 18 224 6.4 11.3 0.00 0.00 0.00 77 1017.8
20260903042511 18 214 4.8 14.5 0.00 0.00 0.00 77 1017.9
20260903042014 18 225 6.4 14.5 0.00 0.00 0.00 77 1017.9
20260903041527 18 205 6.4 20.9 0.00 0.00 0.00 77 1018.1
20260903041014 18 221 8.0 20.9 0.00 0.00 0.00 77 1018.1
20260903040514 18 227 6.4 12.9 0.00 0.00 0.00 77 1018.1
20260903040031 18 191 6.4 16.1 0.00 0.00 0.00 78 1018.2
20260903035516 19 242 6.4 16.1 0.00 0.00 0.00 78 1018.4
20260903035016 19 214 8.0 16.1 0.00 0.00 0.00 78 1018.4
20260903034528 19 194 8.0 16.1 0.00 0.00 0.00 77 1018.2
20260903034017 19 194 6.4 19.3 0.00 0.00 0.00 77 1018.1
20260903033515 19 208 8.0 19.3 0.00 0.00 0.00 78 1018.1
20260903033015 19 224 6.4 17.7 0.00 0.00 0.00 78 1018.3
20260903032510 19 146 8.0 16.1 0.00 0.00 0.00 78 1018.4
20260903032016 19 200 4.8 16.1 0.00 0.00 0.00 78 1018.4
20260903031524 19 219 4.8 16.1 0.00 0.00 0.00 78 1018.4
20260903031014 19 225 8.0 16.1 0.00 0.00 0.00 78 1018.5
20260903030513 19 229 4.8 12.9 0.00 0.00 0.00 78 1018.4
20260903030028 19 220 6.4 11.3 0.00 0.00 0.00 79 1018.6
20260903025515 19 205 4.8 17.7 0.00 0.00 0.00 79 1018.5
20260903025014 19 188 9.7 20.9 0.00 0.00 0.00 79 1018.7
20260903024533 19 247 8.0 20.9 0.00 0.00 0.00 79 1018.5
20260903024015 19 219 8.0 16.1 0.00 0.00 0.00 80 1018.7
20260903023517 19 229 6.4 17.7 0.00 0.00 0.00 80 1018.8
20260903023039 19 237 6.4 17.7 0.00 0.00 0.00 81 1018.8
20260903022518 19 232 8.0 19.3 0.00 0.00 0.00 81 1018.8
20260903022016 19 223 9.7 19.3 0.00 0.00 0.00 82 1019.0
20260903021518 19 190 6.4 14.5 0.00 0.00 0.00 83 1018.7
20260903021011 19 214 9.7 14.5 0.00 0.00 0.00 84 1018.9
20260903020515 18 207 8.0 16.1 0.00 0.00 0.00 85 1019.1
20260903020025 18 225 9.7 16.1 0.00 0.00 0.00 85 1019.2
20260903015515 19 231 8.0 12.9 0.00 0.00 0.00 86 1019.2
20260903015014 19 227 6.4 12.9 0.00 0.00 0.00 87 1019.4
20260903014528 19 214 6.4 12.9 0.00 0.00 0.00 88 1019.4
20260903014016 19 234 4.8 9.7 0.00 0.00 0.00 88 1019.5
20260903013516 19 229 3.2 11.3 0.00 0.00 0.00 88 1019.5
20260903013031 19 227 6.4 11.3 0.00 0.00 0.00 88 1019.5
20260903012518 19 212 1.6 4.8 0.00 0.00 0.00 88 1019.4
20260903012015 19 119 1.6 6.4 0.00 0.00 0.00 88 1019.5
20260903011522 19 188 1.6 6.4 0.00 0.00 0.00 88 1019.5
20260903011001 19 282 1.6 11.3 0.00 0.00 0.00 88 1019.6
20260903010515 19 221 4.8 11.3 0.00 0.00 0.00 88 1019.3
20260903010003 19 245 6.4 8.0 0.00 0.00 0.00 88 1019.0
20260903005512 19 178 4.8 8.0 0.00 0.00 0.00 87 1019.3
20260903005002 19 178 0.0 6.4 0.00 0.00 0.00 87 1019.7
20260903004505 19 334 1.6 11.3 0.00 0.00 0.00 87 1019.5
20260903004003 19 273 1.6 11.3 0.00 0.00 0.00 87 1019.3
20260903003504 19 254 3.2 11.3 0.00 0.00 0.00 88 1018.8
20260903003009 19 257 3.2 12.9 0.00 0.00 0.00 88 1018.6
20260903002503 19 224 8.0 17.7 0.00 0.00 0.00 88 1018.5
20260903002008 19 221 8.0 17.7 0.00 0.00 0.00 88 1018.4
20260903001522 19 210 8.0 16.1 0.00 0.00 0.00 88 1018.4
20260903001010 20 221 6.4 16.1 0.00 0.00 0.00 88 1018.4
20260903000516 20 231 6.4 9.7 0.00 0.00 0.00 88 1018.4
20260903000035 20 240 4.8 9.7 0.00 0.00 0.00 88 1018.8
20260902235518 20 227 3.2 8.0 0.00 0.03 0.00 87 1018.8
20260902235004 20 227 1.6 9.7 0.00 0.03 0.00 87 1019.0
20260902234504 20 242 6.4 9.7 0.00 0.03 0.00 87 1019.1
20260902234002 20 221 3.2 6.4 0.00 0.03 0.00 87 1019.1
20260902233504 20 265 1.6 4.8 0.00 0.03 0.00 86 1019.2
20260902233010 20 221 1.6 4.8 0.00 0.03 0.00 86 1019.1
20260902232503 20 334 1.6 4.8 0.00 0.03 0.00 86 1019.3
20260902232003 20 93 0.0 4.8 0.00 0.03 0.00 85 1019.4
20260902231515 20 232 0.0 4.8 0.00 0.03 0.00 85 1019.6
20260902231006 20 221 0.0 6.4 0.00 0.03 0.00 85 1019.8
20260902230511 20 247 1.6 6.4 0.00 0.05 0.00 85 1019.9
20260902230016 20 196 3.2 6.4 0.00 0.05 0.00 85 1019.9
20260902225510 20 190 1.6 11.3 0.00 0.05 0.00 85 1020.0
20260902225013 20 221 1.6 11.3 0.00 0.05 0.00 85 1020.2
20260902224524 20 207 4.8 9.7 0.00 0.05 0.00 85 1020.3
20260902224012 21 165 4.8 8.0 0.00 0.05 0.00 85 1020.4
20260902223502 21 178 1.6 4.8 0.00 0.05 0.00 85 1020.5
20260902223009 21 334 1.6 3.2 0.00 0.05 0.00 84 1020.5
20260902222502 21 161 0.0 6.4 0.00 0.05 0.00 84 1020.5
20260902222004 21 238 1.6 6.4 0.00 0.05 0.00 84 1020.5
20260902221508 21 137 3.2 6.4 0.00 0.05 0.00 84 1020.4
20260902221003 21 178 1.6 6.4 0.00 0.05 0.00 83 1020.6
20260902220507 21 186 3.2 6.4 0.00 0.05 0.00 83 1020.6
20260902220015 21 163 3.2 6.4 0.00 0.05 0.00 83 1020.6
20260902215508 21 178 1.6 6.4 0.00 0.05 0.00 84 1020.6
20260902215010 21 221 1.6 8.0 0.00 0.05 0.00 84 1020.5
20260902214546 21 137 1.6 8.0 0.00 0.05 0.00 84 1020.3
20260902214012 21 153 3.2 6.4 0.00 0.05 0.00 84 1020.3
20260902213513 21 178 0.0 4.8 0.00 0.05 0.00 84 1020.5
20260902213026 21 178 1.6 4.8 0.00 0.05 0.00 84 1020.5
20260902212517 21 334 1.6 4.8 0.00 0.05 0.00 84 1020.4
20260902212017 21 178 0.0 6.4 0.00 0.05 0.00 83 1020.4
20260902211531 21 205 3.2 6.4 0.00 0.05 0.00 83 1020.3
20260902211004 21 178 1.6 4.8 0.00 0.05 0.00 83 1020.3
20260902210503 21 178 1.6 6.4 0.00 0.05 0.00 82 1020.4
20260902210013 21 205 0.0 6.4 0.00 0.05 0.00 82 1020.4
20260902205505 21 227 1.6 6.4 0.00 0.05 0.00 82 1020.4
20260902205007 21 193 3.2 6.4 0.00 0.05 0.00 83 1020.4
20260902204514 21 205 1.6 4.8 0.00 0.05 0.00 80 1020.4
20260902204014 21 221 0.0 6.4 0.00 0.05 0.00 81 1020.4
20260902203512 21 72 0.0 9.7 0.00 0.05 0.00 81 1020.3
20260902203021 21 171 3.2 9.7 0.00 0.05 0.00 81 1020.2
20260902202517 21 213 1.6 6.4 0.00 0.05 0.00 80 1020.2
20260902202015 21 193 3.2 8.0 0.00 0.05 0.00 81 1020.3
20260902201536 21 236 3.2 8.0 0.00 0.05 0.00 80 1020.3
20260902201012 21 225 4.8 6.4 0.00 0.05 0.00 81 1020.6
20260902200514 21 225 0.0 8.0 0.00 0.05 0.00 81 1020.6
20260902200008 21 188 4.8 8.0 0.00 0.05 0.00 80 1020.9
20260902195507 21 265 1.6 6.4 0.00 0.05 0.00 79 1021.0
20260902195005 21 205 3.2 11.3 0.00 0.05 0.00 79 1021.0
20260902194517 21 212 3.2 14.5 0.00 0.05 0.00 79 1020.9
20260902194009 21 243 8.0 14.5 0.00 0.05 0.00 78 1020.9
20260902193510 21 238 3.2 12.9 0.00 0.05 0.00 79 1020.8
20260902193022 21 178 8.0 16.1 0.00 0.05 0.00 77 1020.9
20260902192508 21 211 8.0 16.1 0.00 0.05 0.00 78 1020.9
20260902192016 21 187 4.8 12.9 0.00 0.05 0.00 78 1020.9
20260902191527 21 195 4.8 14.5 0.00 0.05 0.00 79 1020.9
20260902191012 21 231 6.4 16.1 0.00 0.05 0.00 78 1021.2
20260902190515 21 334 4.8 16.1 0.00 0.05 0.00 79 1021.2
20260902190029 21 212 3.2 8.0 0.00 0.05 0.00 79 1021.2
20260902185516 21 265 3.2 8.0 0.00 0.05 0.00 79 1021.3
20260902185019 21 171 3.2 6.4 0.00 0.05 0.00 78 1021.4
20260902184512 21 209 0.0 4.8 0.00 0.05 0.00 79 1021.6
20260902184007 21 178 1.6 8.0 0.00 0.05 0.00 79 1021.5
20260902183507 21 123 3.2 9.7 0.00 0.05 0.00 79 1021.5
20260902183018 21 209 3.2 9.7 0.00 0.05 0.00 78 1021.5
20260902182509 21 265 1.6 8.0 0.00 0.05 0.00 79 1021.5
20260902182008 21 257 3.2 8.0 0.00 0.05 0.00 79 1021.4
20260902181523 21 201 3.2 9.7 0.00 0.05 0.00 80 1021.4
20260902181013 21 319 1.6 9.7 0.00 0.05 0.00 79 1021.4
20260902180521 21 252 3.2 11.3 0.00 0.05 0.00 79 1021.3
20260902180031 21 205 6.4 16.1 0.00 0.08 0.00 78 1021.4
20260902175518 21 212 3.2 17.7 0.00 0.08 0.00 79 1021.5
20260902175017 21 190 8.0 17.7 0.00 0.08 0.00 79 1021.5
20260902174543 21 208 8.0 17.7 0.00 0.08 0.00 79 1021.4
20260902174013 21 186 4.8 11.3 0.00 0.10 0.00 80 1021.3
20260902173516 21 234 4.8 12.9 0.00 0.10 0.00 80 1021.4
20260902173032 20 236 6.4 12.9 0.00 0.10 0.00 79 1021.5
20260902172511 20 198 1.6 9.7 0.00 0.10 0.00 80 1021.6
20260902172013 20 186 3.2 9.7 0.00 0.10 0.00 79 1021.7
20260902171517 20 232 3.2 11.3 0.00 0.13 0.00 79 1021.6
20260902171011 20 85 4.8 11.3 0.00 0.13 0.00 80 1021.6
20260902170509 20 165 3.2 16.1 0.00 0.13 0.00 80 1021.7
20260902170033 20 194 8.0 16.1 0.00 0.13 0.00 80 1021.7
20260902165512 20 225 8.0 12.9 0.00 0.13 0.00 81 1021.9
20260902165015 20 227 4.8 11.3 0.00 0.13 0.00 81 1021.9
20260902164543 20 178 4.8 11.3 0.00 0.13 0.00 80 1021.9
20260902164003 20 227 6.4 12.9 0.00 0.13 0.00 81 1021.9
20260902163503 20 205 8.0 12.9 0.00 0.15 0.00 81 1022.0
20260902163009 20 161 4.8 11.3 0.00 0.15 0.00 81 1022.0
20260902162504 20 178 1.6 12.9 0.00 0.15 0.00 81 1021.9
20260902162008 20 213 6.4 12.9 0.00 0.15 0.00 82 1022.0
20260902161523 20 124 4.8 16.1 0.00 0.15 0.00 81 1022.1
20260902161020 20 309 4.8 16.1 0.00 0.18 0.00 82 1022.1
20260902160513 20 238 4.8 12.9 0.00 0.20 0.00 82 1022.0
20260902160033 20 202 8.0 12.9 0.00 0.23 0.00 82 1022.2
20260902155510 20 249 3.2 8.0 0.00 0.25 0.00 82 1022.3
20260902155014 20 165 3.2 8.0 0.00 0.25 0.00 83 1022.3
20260902154529 19 196 3.2 8.0 0.00 0.25 0.00 84 1022.4
20260902154012 19 200 3.2 8.0 0.00 0.28 0.00 82 1022.5
20260902153515 19 200 3.2 11.3 0.00 0.30 0.00 83 1022.5
20260902153033 19 221 6.4 11.3 0.00 0.36 0.00 83 1022.7
20260902152516 19 265 3.2 12.9 0.00 0.41 0.00 84 1022.5
20260902152006 19 169 6.4 12.9 0.00 0.41 0.00 83 1022.6
20260902151512 19 236 4.8 8.0 0.00 0.41 0.00 84 1022.7
20260902151005 19 171 4.8 9.7 0.00 0.41 0.00 84 1022.8
20260902150510 19 217 3.2 9.7 0.00 0.41 0.00 84 1022.9
20260902150033 19 200 6.4 9.7 0.00 0.41 0.00 84 1022.9
20260902145511 19 221 3.2 9.7 0.00 0.41 0.00 84 1022.9
20260902145015 19 119 1.6 9.7 0.00 0.41 0.00 84 1023.0
20260902144529 19 255 3.2 6.4 0.00 0.41 0.00 84 1022.8
20260902144014 19 178 3.2 12.9 0.00 0.41 0.00 85 1022.8
20260902143514 19 146 3.2 14.5 0.00 0.41 0.00 84 1022.8
20260902143030 19 279 4.8 14.5 0.00 0.41 0.00 84 1022.7
20260902142516 19 294 6.4 14.5 0.00 0.41 0.00 83 1022.7
20260902142013 19 219 6.4 14.5 0.00 0.41 0.00 84 1022.7
20260902141535 19 203 4.8 14.5 0.00 0.41 0.00 84 1022.6
20260902141018 19 237 9.7 14.5 0.00 0.41 0.00 83 1022.5
20260902140507 19 236 8.0 17.7 0.00 0.41 0.00 83 1022.5
20260902140017 18 242 9.7 17.7 0.00 0.41 0.00 84 1022.5
20260902135514 18 223 4.8 11.3 0.00 0.41 0.00 85 1022.4
20260902135011 18 221 4.8 11.3 0.00 0.41 0.00 85 1022.5
20260902134523 18 250 6.4 11.3 0.00 0.41 0.00 86 1022.4
20260902134012 18 51 1.6 9.7 0.00 0.41 0.00 86 1022.6
20260902133519 18 196 3.2 9.7 0.00 0.41 0.00 87 1022.4
20260902133033 18 171 3.2 16.1 0.00 0.41 0.00 85 1022.3
20260902132515 18 242 3.2 16.1 0.00 0.41 0.00 86 1022.0
20260902132016 18 196 6.4 12.9 0.00 0.41 0.00 86 1022.0
20260902131528 18 231 3.2 8.0 0.00 0.41 0.00 89 1022.1
20260902131016 18 205 3.2 8.0 0.00 0.41 0.00 89 1022.0
20260902130516 18 221 3.2 8.0 0.00 0.41 0.00 89 1022.1
20260902130033 18 9 3.2 6.4 0.00 0.41 0.00 90 1022.1
20260902125520 18 212 3.2 6.4 0.00 0.41 0.00 90 1022.1
20260902125017 17 221 1.6 6.4 0.00 0.41 0.00 90 1022.2
20260902124518 18 205 3.2 6.4 0.00 0.41 0.00 91 1022.2
20260902124008 17 205 1.6 6.4 0.00 0.41 0.00 91 1022.2
20260902123511 17 193 3.2 8.0 0.00 0.41 0.00 91 1022.1
20260902123026 17 137 1.6 8.0 0.00 0.41 0.00 92 1022.1
20260902122514 17 232 1.6 3.2 0.00 0.41 0.00 93 1022.2
20260902122011 17 9 0.0 3.2 0.00 0.41 0.00 93 1022.2
20260902121527 17 153 0.0 4.8 0.00 0.41 0.00 94 1022.1
20260902121017 17 205 1.6 4.8 0.00 0.41 0.00 94 1022.0
20260902120516 17 102 0.0 4.8 0.00 0.43 0.00 94 1022.1
20260902120033 17 254 1.6 3.2 0.00 0.43 0.00 95 1022.2
20260902115521 17 221 0.0 3.2 0.00 0.43 0.00 94 1022.2
20260902115016 17 67 0.0 3.2 0.00 0.43 0.00 95 1022.3
20260902114539 17 51 1.6 3.2 0.00 0.46 0.00 94 1022.2
20260902114014 17 205 0.0 4.8 0.00 0.46 0.00 95 1022.2
20260902113519 16 205 1.6 4.8 0.00 0.48 0.00 95 1022.2
20260902113022 16 221 1.6 4.8 0.00 0.51 0.00 94 1022.2
20260902112513 16 51 1.6 6.4 0.00 0.53 0.00 94 1022.3
20260902112013 16 221 1.6 6.4 0.00 0.58 0.00 94 1022.5
20260902111524 16 51 1.6 4.8 0.00 0.64 0.00 94 1022.5
20260902111019 16 214 1.6 3.2 0.00 0.66 0.00 94 1022.4
20260902110513 16 193 1.6 3.2 0.00 0.71 0.00 94 1022.3
20260902110028 16 178 0.0 3.2 0.00 0.76 0.00 94 1022.4
20260902105516 16 178 0.0 3.2 0.00 0.79 0.00 94 1022.3
20260902105021 16 51 0.0 3.2 0.00 0.81 0.00 94 1022.3
20260902104539 16 221 0.0 3.2 0.00 0.86 0.00 94 1022.2
20260902104019 16 238 0.0 3.2 0.00 0.89 0.00 94 1022.1
20260902103524 16 196 1.6 3.2 0.00 0.91 0.00 94 1022.1
20260902103032 16 238 0.0 3.2 0.00 0.94 0.00 94 1022.2
20260902102517 16 238 0.0 3.2 0.00 0.94 0.00 94 1022.1
20260902102019 16 265 0.0 3.2 0.00 0.94 0.00 94 1022.0
20260902101537 16 238 0.0 3.2 0.00 0.97 0.00 94 1022.0
20260902101016 16 9 0.0 3.2 0.00 0.97 0.00 94 1021.9
20260902100503 16 291 0.0 3.2 0.00 0.97 0.00 94 1021.8
20260902100007 16 9 0.0 3.2 0.00 0.97 0.00 94 1021.7
20260902095505 16 334 0.0 3.2 0.00 0.97 0.00 94 1021.8
20260902095004 16 51 0.0 1.6 0.00 0.97 0.00 94 1021.6
20260902094510 16 221 0.0 1.6 0.00 0.97 0.00 94 1021.7
20260902094007 16 9 0.0 4.8 0.00 0.97 0.00 94 1021.7
20260902093508 16 51 0.0 4.8 0.00 0.97 0.00 94 1021.7
20260902093024 16 9 1.6 3.2 0.00 0.97 0.00 94 1021.7
20260902092507 16 41 1.6 4.8 0.00 0.97 0.00 94 1021.7
20260902092011 16 9 1.6 4.8 0.00 0.97 0.00 94 1021.6
20260902091526 17 93 0.0 3.2 0.00 0.97 0.00 94 1021.6
20260902091012 16 265 0.0 1.6 0.00 0.97 0.00 94 1021.6
20260902090503 17 93 0.0 1.6 0.00 0.97 0.00 94 1021.4
20260902090005 17 265 0.0 1.6 0.00 0.97 0.00 94 1021.4
20260902085502 17 265 0.0 4.8 0.00 0.97 0.00 94 1021.4
20260902085004 17 265 0.0 4.8 0.00 0.97 0.00 94 1021.3
20260902084507 17 316 1.6 4.8 0.00 0.97 0.00 94 1021.2
20260902084004 17 338 1.6 4.8 0.00 0.97 0.00 94 1021.1
20260902083504 17 44 0.0 3.2 0.00 0.97 0.00 94 1021.2
20260902083010 17 51 0.0 3.2 0.00 0.97 0.00 94 1021.1
20260902082506 17 137 0.0 3.2 0.00 0.97 0.00 94 1021.2
20260902082009 17 51 0.0 3.2 0.00 0.97 0.00 94 1021.3
20260902081528 17 93 0.0 3.2 0.00 0.97 0.00 94 1021.2
20260902081017 17 216 0.0 3.2 0.00 0.97 0.00 94 1021.2
20260902080513 17 232 1.6 4.8 0.00 0.97 0.00 94 1021.2
20260902080027 17 232 1.6 4.8 0.00 0.97 0.00 94 1021.3
20260902075515 17 165 1.6 6.4 0.00 0.97 0.00 94 1021.3
20260902075002 17 178 1.6 6.4 0.00 0.97 0.00 94 1021.4
20260902074507 17 51 1.6 4.8 0.00 0.97 0.00 94 1021.4
20260902074003 17 221 1.6 3.2 0.00 0.97 0.00 94 1021.4
20260902073506 17 51 0.0 3.2 0.00 0.97 0.00 94 1021.3
20260902073010 17 93 1.6 3.2 0.00 0.97 0.00 94 1021.3
20260902072508 17 93 0.0 3.2 0.00 0.97 0.00 94 1021.4
20260902072005 17 265 0.0 3.2 0.00 0.97 0.00 94 1021.3
20260902071514 17 298 0.0 3.2 0.00 0.97 0.00 94 1021.3
20260902071009 17 265 0.0 3.2 0.00 0.97 0.00 94 1021.3
20260902070507 17 178 0.0 1.6 0.00 0.97 0.00 94 1021.4
20260902070009 17 178 0.0 3.2 0.00 0.97 0.00 94 1021.4
20260902065503 17 93 0.0 3.2 0.00 0.97 0.00 94 1021.5
20260902065014 17 67 0.0 3.2 0.00 0.97 0.00 94 1021.6
20260902064508 17 80 0.0 3.2 0.00 0.97 0.00 94 1021.6
20260902064002 17 51 0.0 3.2 0.00 0.97 0.00 94 1021.6
20260902063516 17 41 1.6 3.2 0.00 0.97 0.00 94 1021.5
20260902063008 17 51 0.0 3.2 0.00 0.97 0.00 94 1021.5
20260902062505 17 51 0.0 3.2 0.00 0.97 0.00 94 1021.5
20260902062006 17 265 0.0 3.2 0.00 0.97 0.00 94 1021.4
20260902061527 17 205 0.0 1.6 0.00 0.97 0.00 94 1021.4
20260902061010 17 9 0.0 1.6 0.00 0.97 0.00 94 1021.4